Вернуться в каталог

STARLINK-35935

АктивенСвязьVLEO
NORAD 66527·PAYLOAD·🇺🇸 United States

Запущен Nov 19, 2025 с Cape Canaveral Space Force Station

Loading…

Ближайшие Пролёты (ближайшие 24 часа)

TLE

СвежийSource: CelesTrak SupGP

Эпоха: Sep 14, 2026, 21:10 UTC

1 66527C 25265M   26257.88243056 -.00001047  00000+0 -37909-4 0  2576
2 66527  43.0015 289.6523 0001431 262.9777 179.7103 15.27574019    15

Отслеживайте STARLINK-35935 в реальном времени с AllMySat

Download on the App Store